Flag for Canada Weather past 2 weeks in Calgary, Alberta, Canada

Now
59 °F

Broken clouds.


Feels Like: 57 °F
Forecast: 52 / 73 °F
Wind: 13 mph from West

Location: Calgary International

Current Time: May 26, 2015 at 8:35:23 PM

Latest Report: May 26, 2015 at 8:00 PM


Visibility: 15 mi

Pressure: 30.02 "Hg

Humidity: 63%

Dew point: 46 °F

Location of CalgaryLocation

Historic Weather in Calgary — Graph

°F

Calgary temperature yesterday

Maximum temperature yesterday: 73 °F (at 3:00 PM)
Minimum temperature yesterday: 48 °F (at 5:00 AM)
Average temperature yesterday: 61 °F

Past Weeks' High & Low Weather Summary

 TemperatureHumidityPressure
High75 °F (May 23, 5:00 PM)100% (May 15, 9:00 AM)30.49 "Hg (May 15, 9:00 AM)
Low27 °F (May 12, 5:00 AM)15% (May 11, 7:00 PM)29.85 "Hg (May 25, 3:00 PM)
Average52 °F51%30.12 "Hg
* Reported May 11 7:00 PM — May 26 7:00 PM, Calgary, Weather by CustomWeather, © 2015

Note: Actual official high and low records may vary slightly from our data, if they occured in-between our weather recording intervals... More about our weather records

Advertising

Calgary weather history for previous 24 hours

 ConditionsComfort  
Time TempWeatherWind HumidityBarometerVisibility
7:00 PM
Tue, May 26
61 °FMostly cloudy.10 mph52%30.02 "Hg15 mi
6:00 PM66 °FCloudy.5 mph40%30.01 "Hg15 mi
5:00 PM66 °FBroken clouds.16 mph37%29.99 "Hg15 mi
4:00 PM66 °FCloudy.20 mph43%29.98 "Hg15 mi
3:00 PM70 °FMostly cloudy.6 mph29%29.98 "Hg15 mi
2:00 PM68 °FMore clouds than sun.5 mph38%29.98 "Hg15 mi
1:00 PM66 °FCloudy.10 mph43%29.99 "Hg15 mi
12:00 PM64 °FMostly cloudy.10 mph43%30.00 "Hg15 mi
11:00 AM63 °FMostly cloudy.6 mph49%30.00 "Hg15 mi
10:00 AM63 °FPartly sunny.12 mph45%29.98 "Hg15 mi
9:00 AM61 °FPartly sunny.8 mph48%29.97 "Hg30 mi
8:00 AM59 °FScattered showers. Mostly cloudy.9 mph55%29.96 "Hg30 mi
7:00 AM55 °FPartly sunny.9 mph59%29.96 "Hg30 mi
6:00 AM55 °FMostly cloudy.9 mph55%29.94 "Hg15 mi
5:00 AM54 °FPartly cloudy.6 mph63%29.93 "Hg15 mi
4:00 AM55 °FPartly cloudy.5 mph55%29.93 "Hg15 mi
3:00 AM54 °FPassing clouds.7 mph63%29.91 "Hg15 mi
2:00 AM54 °FScattered showers. Partly cloudy.8 mph63%29.92 "Hg15 mi
1:51 AM54 °FPassing clouds.6 mph63%29.92 "Hg15 mi
1:00 AM57 °FPartly cloudy.9 mph55%29.91 "Hg15 mi
12:00 AM57 °FPartly cloudy.7 mph55%29.91 "Hg15 mi
11:00 PM
Mon, May 25
57 °FPassing clouds.7 mph55%29.90 "Hg15 mi
10:00 PM59 °FScattered showers. Broken clouds.8 mph51%29.90 "Hg15 mi
9:00 PM63 °FScattered showers. Mostly cloudy.8 mph45%29.88 "Hg15 mi
8:00 PM64 °FScattered showers. Partly sunny.9 mph37%29.87 "Hg15 mi
Weather by CustomWeather, © 2015

See weather overviewHow to use our weather pages